Time,TemperatureF,DewpointF,PressureIn,WindDirection,WindDirectionDegrees,WindSpeedMPH,WindSpeedGustMPH,Humidity,HourlyPrecipIn,Conditions,Clouds,dailyrainin,SoftwareType,DateUTC
2013-06-01 00:00:00,75.4,66.9,30.02,WSW,247,0.0,0.0,75,0.00,,,0.00,WeatherCatV1.11B39,2013-06-01 04:00:00,
2013-06-01 00:01:00,75.4,66.9,30.02,WSW,247,0.0,0.0,75,0.00,,,0.00,WeatherCatV1.11B39,2013-06-01 04:01:00,
2013-06-01 00:06:00,74.7,66.2,30.02,WSW,247,0.0,0.0,75,0.00,,,0.00,WeatherCatV1.11B39,2013-06-01 04:06:00,
2013-06-01 00:11:00,74.1,66.4,30.03,WSW,247,0.0,0.0,77,0.00,,,0.00,WeatherCatV1.11B39,2013-06-01 04:11:00,
2013-06-01 00:16:00,73.5,66.2,30.02,WSW,247,0.0,0.0,78,0.00,,,0.00,WeatherCatV1.11B39,2013-06-01 04:16:00,
2013-06-01 00:21:00,73.1,65.8,30.02,WSW,247,0.0,0.0,78,0.00,,,0.00,WeatherCatV1.11B39,2013-06-01 04:21:00,
2013-06-01 00:26:00,72.8,65.5,30.02,WSW,247,0.0,0.0,78,0.00,,,0.00,WeatherCatV1.11B39,2013-06-01 04:26:00,
2013-06-01 00:31:00,72.6,65.7,30.02,WSW,247,0.0,0.0,79,0.00,,,0.00,WeatherCatV1.11B39,2013-06-01 04:31:00,
2013-06-01 00:36:00,72.5,66.0,30.02,WSW,247,0.0,0.0,80,0.00,,,0.00,WeatherCatV1.11B39,2013-06-01 04:36:00,
2013-06-01 00:41:00,72.2,65.7,30.02,WSW,248,0.0,0.0,80,0.00,,,0.00,WeatherCatV1.11B39,2013-06-01 04:41:00,
2013-06-01 00:46:00,71.9,65.4,30.02,WSW,248,0.0,0.0,80,0.00,,,0.00,WeatherCatV1.11B39,2013-06-01 04:46:00,
2013-06-01 00:51:00,71.8,65.6,30.02,WSW,248,0.0,0.0,81,0.00,,,0.00,WeatherCatV1.11B39,2013-06-01 04:51:00,
2013-06-01 00:56:00,71.7,65.9,30.02,WSW,248,0.0,0.0,82,0.00,,,0.00,WeatherCatV1.11B39,2013-06-01 04:56:00,
2013-06-01 01:00:00,71.8,66.3,30.01,WSW,248,0.0,0.0,83,0.00,,,0.00,WeatherCatV1.11B39,2013-06-01 05:00:00,
2013-06-01 01:05:00,71.6,66.5,30.01,WSW,248,0.0,0.0,84,0.00,,,0.00,WeatherCatV1.11B39,2013-06-01 05:05:00,
2013-06-01 01:10:00,71.6,66.8,30.01,WSW,248,0.0,0.0,85,0.00,,,0.00,WeatherCatV1.11B39,2013-06-01 05:10:00,
2013-06-01 01:15:00,71.4,66.6,30.01,WSW,248,0.0,0.0,85,0.00,,,0.00,WeatherCatV1.11B39,2013-06-01 05:15:00,
2013-06-01 01:20:00,71.3,66.9,30.01,WSW,248,0.0,0.0,86,0.00,,,0.00,WeatherCatV1.11B39,2013-06-01 05:20:00,
2013-06-01 01:25:00,70.9,66.5,30.01,WSW,248,0.0,0.0,86,0.00,,,0.00,WeatherCatV1.11B39,2013-06-01 05:25:00,
2013-06-01 01:30:00,70.6,66.2,30.01,WSW,248,0.0,0.0,86,0.00,,,0.00,WeatherCatV1.11B39,2013-06-01 05:30:00,
2013-06-01 01:35:00,70.4,66.0,30.00,WSW,248,0.0,0.0,86,0.00,,,0.00,WeatherCatV1.11B39,2013-06-01 05:35:00,
2013-06-01 01:40:00,70.4,66.0,30.00,WSW,248,0.0,0.0,86,0.00,,,0.00,WeatherCatV1.11B39,2013-06-01 05:40:00,
2013-06-01 01:45:00,70.4,66.0,30.00,WSW,248,0.0,0.0,86,0.00,,,0.00,WeatherCatV1.11B39,2013-06-01 05:45:00,
2013-06-01 01:50:00,70.2,66.1,30.00,WSW,248,0.0,0.0,87,0.00,,,0.00,WeatherCatV1.11B39,2013-06-01 05:50:00,
2013-06-01 01:55:00,70.2,66.1,30.00,WSW,248,0.0,0.0,87,0.00,,,0.00,WeatherCatV1.11B39,2013-06-01 05:55:00,
2013-06-01 02:00:00,70.1,65.7,30.00,WSW,247,0.0,0.0,86,0.00,,,0.00,WeatherCatV1.11B39,2013-06-01 06:00:00,
2013-06-01 02:05:00,70.1,65.7,30.00,WSW,247,0.0,0.0,86,0.00,,,0.00,WeatherCatV1.11B39,2013-06-01 06:05:00,
2013-06-01 02:10:00,70.1,65.7,30.00,WSW,247,0.0,0.0,86,0.00,,,0.00,WeatherCatV1.11B39,2013-06-01 06:10:00,
2013-06-01 02:15:00,69.9,65.5,29.99,WSW,247,0.0,0.0,86,0.00,,,0.00,WeatherCatV1.11B39,2013-06-01 06:15:00,
2013-06-01 02:20:00,69.9,65.5,30.00,WSW,248,0.0,0.0,86,0.00,,,0.00,WeatherCatV1.11B39,2013-06-01 06:20:00,
2013-06-01 02:25:00,69.7,65.6,30.00,WSW,248,0.0,0.0,87,0.00,,,0.00,WeatherCatV1.11B39,2013-06-01 06:25:00,
2013-06-01 02:30:00,69.7,66.0,30.00,West,262,0.0,0.0,88,0.00,,,0.00,WeatherCatV1.11B39,2013-06-01 06:30:00,
2013-06-01 02:35:00,69.9,66.2,29.99,West,261,0.0,0.0,88,0.00,,,0.00,WeatherCatV1.11B39,2013-06-01 06:35:00,
2013-06-01 02:40:00,70.2,66.1,29.99,West,263,1.0,4.0,87,0.00,,,0.00,WeatherCatV1.11B39,2013-06-01 06:40:00,
2013-06-01 02:45:00,70.6,66.2,29.99,West,271,3.0,4.0,86,0.00,,,0.00,WeatherCatV1.11B39,2013-06-01 06:45:00,
2013-06-01 02:50:00,70.9,65.8,29.99,West,275,0.0,3.0,84,0.00,,,0.00,WeatherCatV1.11B39,2013-06-01 06:50:00,
2013-06-01 02:55:00,71.4,65.6,29.99,West,278,2.0,5.0,82,0.00,,,0.00,WeatherCatV1.11B39,2013-06-01 06:55:00,
2013-06-01 03:00:00,71.8,65.6,29.99,West,278,1.0,3.0,81,0.00,,,0.00,WeatherCatV1.11B39,2013-06-01 07:00:00,
2013-06-01 03:05:00,71.9,65.4,29.99,WNW,286,0.0,4.0,80,0.00,,,0.00,WeatherCatV1.11B39,2013-06-01 07:05:00,
2013-06-01 03:10:00,71.9,64.7,29.99,WNW,282,2.0,3.0,78,0.00,,,0.00,WeatherCatV1.11B39,2013-06-01 07:10:00,
2013-06-01 03:15:00,72.1,64.8,29.99,WNW,291,5.0,5.0,78,0.00,,,0.00,WeatherCatV1.11B39,2013-06-01 07:15:00,
2013-06-01 03:20:00,72.1,64.5,29.98,NW,321,3.0,4.0,77,0.00,,,0.00,WeatherCatV1.11B39,2013-06-01 07:20:00,
2013-06-01 03:25:00,72.2,64.6,29.99,NW,308,2.0,5.0,77,0.00,,,0.00,WeatherCatV1.11B39,2013-06-01 07:25:00,
2013-06-01 03:30:00,72.1,64.5,29.99,NW,319,3.0,4.0,77,0.00,,,0.00,WeatherCatV1.11B39,2013-06-01 07:30:00,
2013-06-01 03:35:00,72.1,64.1,29.99,WNW,287,2.0,4.0,76,0.00,,,0.00,WeatherCatV1.11B39,2013-06-01 07:35:00,
2013-06-01 03:40:00,72.1,64.1,29.99,WNW,287,1.0,4.0,76,0.00,,,0.00,WeatherCatV1.11B39,2013-06-01 07:40:00,
2013-06-01 03:45:00,72.1,64.1,29.99,WNW,286,1.0,4.0,76,0.00,,,0.00,WeatherCatV1.11B39,2013-06-01 07:45:00,
2013-06-01 03:50:00,71.9,63.9,29.99,WNW,285,2.0,4.0,76,0.00,,,0.00,WeatherCatV1.11B39,2013-06-01 07:50:00,
2013-06-01 03:55:00,71.9,63.9,29.99,WNW,285,1.0,3.0,76,0.00,,,0.00,WeatherCatV1.11B39,2013-06-01 07:55:00,
2013-06-01 04:00:00,71.8,63.8,29.99,WNW,286,2.0,4.0,76,0.00,,,0.00,WeatherCatV1.11B39,2013-06-01 08:00:00,
2013-06-01 04:05:00,71.8,63.4,29.99,WNW,285,2.0,3.0,75,0.00,,,0.00,WeatherCatV1.11B39,2013-06-01 08:05:00,
2013-06-01 04:10:00,71.7,63.7,29.99,WNW,285,0.0,0.0,76,0.00,,,0.00,WeatherCatV1.11B39,2013-06-01 08:10:00,
2013-06-01 04:15:00,71.7,63.7,29.99,WNW,285,0.0,0.0,76,0.00,,,0.00,WeatherCatV1.11B39,2013-06-01 08:15:00,
2013-06-01 04:20:00,71.6,63.2,29.99,WNW,285,0.0,0.0,75,0.00,,,0.00,WeatherCatV1.11B39,2013-06-01 08:20:00,
2013-06-01 04:25:00,71.6,63.6,29.99,WNW,285,0.0,0.0,76,0.00,,,0.00,WeatherCatV1.11B39,2013-06-01 08:25:00,
2013-06-01 04:30:00,71.6,63.2,29.98,WNW,285,0.0,0.0,75,0.00,,,0.00,WeatherCatV1.11B39,2013-06-01 08:30:00,
2013-06-01 04:35:00,71.1,62.8,29.99,WNW,285,0.0,0.0,75,0.00,,,0.00,WeatherCatV1.11B39,2013-06-01 08:35:00,
2013-06-01 04:40:00,70.7,62.4,29.99,WNW,285,0.0,0.0,75,0.00,,,0.00,WeatherCatV1.11B39,2013-06-01 08:40:00,
2013-06-01 04:45:00,70.1,62.2,29.99,WNW,285,0.0,0.0,76,0.00,,,0.00,WeatherCatV1.11B39,2013-06-01 08:45:00,
2013-06-01 04:50:00,69.8,61.9,29.98,WNW,285,0.0,0.0,76,0.00,,,0.00,WeatherCatV1.11B39,2013-06-01 08:50:00,
2013-06-01 04:55:00,69.4,61.9,29.99,WNW,285,0.0,0.0,77,0.00,,,0.00,WeatherCatV1.11B39,2013-06-01 08:55:00,
2013-06-01 05:00:00,69.1,61.6,29.99,WNW,285,0.0,0.0,77,0.00,,,0.00,WeatherCatV1.11B39,2013-06-01 09:00:00,
2013-06-01 05:05:00,68.9,61.4,29.99,WNW,285,0.0,0.0,77,0.00,,,0.00,WeatherCatV1.11B39,2013-06-01 09:05:00,
2013-06-01 05:10:00,68.8,61.7,30.00,WNW,285,0.0,0.0,78,0.00,,,0.00,WeatherCatV1.11B39,2013-06-01 09:10:00,
2013-06-01 05:15:00,68.5,61.4,29.99,WNW,285,0.0,0.0,78,0.00,,,0.00,WeatherCatV1.11B39,2013-06-01 09:15:00,
2013-06-01 05:20:00,68.4,61.6,29.99,WNW,285,0.0,0.0,79,0.00,,,0.00,WeatherCatV1.11B39,2013-06-01 09:20:00,
2013-06-01 05:25:00,68.3,61.5,29.99,WNW,285,0.0,0.0,79,0.00,,,0.00,WeatherCatV1.11B39,2013-06-01 09:25:00,
2013-06-01 05:30:00,68.1,61.7,29.99,WNW,285,0.0,0.0,80,0.00,,,0.00,WeatherCatV1.11B39,2013-06-01 09:30:00,
2013-06-01 05:35:00,68.1,61.7,29.99,WNW,285,0.0,0.0,80,0.00,,,0.00,WeatherCatV1.11B39,2013-06-01 09:35:00,
2013-06-01 05:40:00,67.9,61.5,29.99,WNW,285,0.0,0.0,80,0.00,,,0.00,WeatherCatV1.11B39,2013-06-01 09:40:00,
2013-06-01 05:45:00,67.9,61.5,29.99,WNW,285,0.0,0.0,80,0.00,,,0.00,WeatherCatV1.11B39,2013-06-01 09:45:00,
2013-06-01 05:50:00,67.8,61.4,29.99,WNW,285,0.0,0.0,80,0.00,,,0.00,WeatherCatV1.11B39,2013-06-01 09:50:00,
2013-06-01 05:55:00,67.6,61.6,30.00,WNW,285,0.0,0.0,81,0.00,,,0.00,WeatherCatV1.11B39,2013-06-01 09:55:00,
2013-06-01 06:00:00,67.5,61.5,30.00,WNW,285,0.0,0.0,81,0.00,,,0.00,WeatherCatV1.11B39,2013-06-01 10:00:00,
2013-06-01 06:05:00,67.2,61.5,30.00,WNW,285,0.0,0.0,82,0.00,,,0.00,WeatherCatV1.11B39,2013-06-01 10:05:00,
2013-06-01 06:10:00,67.1,61.4,30.00,WNW,285,0.0,0.0,82,0.00,,,0.00,WeatherCatV1.11B39,2013-06-01 10:10:00,
2013-06-01 06:15:00,67.3,62.3,30.00,South,173,0.0,0.0,84,0.00,,,0.00,WeatherCatV1.11B39,2013-06-01 10:15:00,
2013-06-01 06:20:00,67.3,62.3,30.00,South,173,0.0,0.0,84,0.00,,,0.00,WeatherCatV1.11B39,2013-06-01 10:20:00,
2013-06-01 06:25:00,67.2,62.5,30.00,South,173,0.0,0.0,85,0.00,,,0.00,WeatherCatV1.11B39,2013-06-01 10:25:00,
2013-06-01 06:30:00,67.3,62.6,29.99,South,173,0.0,0.0,85,0.00,,,0.00,WeatherCatV1.11B39,2013-06-01 10:30:00,
2013-06-01 06:35:00,67.8,63.1,30.00,South,173,0.0,0.0,85,0.00,,,0.00,WeatherCatV1.11B39,2013-06-01 10:35:00,
2013-06-01 06:40:00,68.3,63.3,30.00,South,173,0.0,0.0,84,0.00,,,0.00,WeatherCatV1.11B39,2013-06-01 10:40:00,
2013-06-01 06:45:00,68.7,63.7,29.99,South,173,0.0,0.0,84,0.00,,,0.00,WeatherCatV1.11B39,2013-06-01 10:45:00,
2013-06-01 06:50:00,69.1,63.7,30.00,South,173,0.0,0.0,83,0.00,,,0.00,WeatherCatV1.11B39,2013-06-01 10:50:00,
2013-06-01 06:55:00,69.4,64.0,30.00,South,173,0.0,0.0,83,0.00,,,0.00,WeatherCatV1.11B39,2013-06-01 10:55:00,
2013-06-01 07:00:00,69.8,64.0,30.00,South,173,0.0,0.0,82,0.00,,,0.00,WeatherCatV1.11B39,2013-06-01 11:00:00,
2013-06-01 07:05:00,69.9,64.5,29.99,South,173,0.0,0.0,83,0.00,,,0.00,WeatherCatV1.11B39,2013-06-01 11:05:00,
2013-06-01 07:10:00,70.2,64.4,30.00,South,172,0.0,0.0,82,0.00,,,0.00,WeatherCatV1.11B39,2013-06-01 11:10:00,
2013-06-01 07:15:00,70.4,65.0,30.00,South,172,0.0,0.0,83,0.00,,,0.00,WeatherCatV1.11B39,2013-06-01 11:15:00,
2013-06-01 07:20:00,70.6,64.8,30.00,South,172,0.0,0.0,82,0.00,,,0.00,WeatherCatV1.11B39,2013-06-01 11:20:00,
2013-06-01 07:25:00,70.9,65.5,30.01,South,172,0.0,0.0,83,0.00,,,0.00,WeatherCatV1.11B39,2013-06-01 11:25:00,
2013-06-01 07:30:00,71.3,65.9,30.01,South,172,0.0,0.0,83,0.00,,,0.00,WeatherCatV1.11B39,2013-06-01 11:30:00,
2013-06-01 07:35:00,71.3,65.5,30.00,South,172,0.0,0.0,82,0.00,,,0.00,WeatherCatV1.11B39,2013-06-01 11:35:00,
2013-06-01 07:40:00,71.6,65.4,30.00,South,172,0.0,0.0,81,0.00,,,0.00,WeatherCatV1.11B39,2013-06-01 11:40:00,
2013-06-01 07:45:00,72.6,65.0,30.00,South,172,0.0,0.0,77,0.00,,,0.00,WeatherCatV1.11B39,2013-06-01 11:45:00,
2013-06-01 07:50:00,73.6,65.6,30.00,South,172,0.0,0.0,76,0.00,,,0.00,WeatherCatV1.11B39,2013-06-01 11:50:00,
2013-06-01 07:55:00,74.3,65.8,30.00,SSW,198,0.0,0.0,75,0.00,,,0.00,WeatherCatV1.11B39,2013-06-01 11:55:00,
2013-06-01 08:00:00,75.0,65.7,30.00,SSW,198,0.0,0.0,73,0.00,,,0.00,WeatherCatV1.11B39,2013-06-01 12:00:00,
2013-06-01 08:05:00,75.5,66.2,30.00,SSW,198,0.0,0.0,73,0.00,,,0.00,WeatherCatV1.11B39,2013-06-01 12:05:00,
2013-06-01 08:10:00,75.7,65.6,30.00,SW,215,0.0,0.0,71,0.00,,,0.00,WeatherCatV1.11B39,2013-06-01 12:10:00,
2013-06-01 08:15:00,76.4,65.5,30.00,SW,215,0.0,0.0,69,0.00,,,0.00,WeatherCatV1.11B39,2013-06-01 12:15:00,
2013-06-01 08:20:00,76.8,65.8,30.00,SW,215,0.0,0.0,69,0.00,,,0.00,WeatherCatV1.11B39,2013-06-01 12:20:00,
2013-06-01 08:25:00,77.1,65.3,30.00,WSW,257,0.0,1.0,67,0.00,,,0.00,WeatherCatV1.11B39,2013-06-01 12:25:00,
2013-06-01 08:30:00,77.6,65.3,30.01,WNW,285,2.0,4.0,66,0.00,,,0.00,WeatherCatV1.11B39,2013-06-01 12:30:00,
2013-06-01 08:35:00,78.2,64.6,30.01,WNW,282,4.0,7.0,63,0.00,,,0.00,WeatherCatV1.11B39,2013-06-01 12:35:00,
2013-06-01 08:40:00,78.5,64.8,30.00,WNW,297,3.0,5.0,63,0.00,,,0.00,WeatherCatV1.11B39,2013-06-01 12:40:00,
2013-06-01 08:45:00,78.7,64.6,30.01,WNW,289,0.0,3.0,62,0.00,,,0.00,WeatherCatV1.11B39,2013-06-01 12:45:00,
2013-06-01 08:50:00,79.1,65.4,30.00,WNW,283,0.0,0.0,63,0.00,,,0.00,WeatherCatV1.11B39,2013-06-01 12:50:00,
2013-06-01 08:55:00,79.3,65.1,30.00,WNW,283,0.0,0.0,62,0.00,,,0.00,WeatherCatV1.11B39,2013-06-01 12:55:00,
2013-06-01 09:00:00,79.7,65.5,30.01,WNW,283,0.0,2.0,62,0.00,,,0.00,WeatherCatV1.11B39,2013-06-01 13:00:00,
2013-06-01 09:05:00,80.0,65.3,30.00,WNW,296,0.0,0.0,61,0.00,,,0.00,WeatherCatV1.11B39,2013-06-01 13:05:00,
2013-06-01 09:10:00,80.2,65.0,30.01,WNW,302,3.0,3.0,60,0.00,,,0.00,WeatherCatV1.11B39,2013-06-01 13:10:00,
2013-06-01 09:15:00,80.6,63.9,30.00,NW,312,4.0,6.0,57,0.00,,,0.00,WeatherCatV1.11B39,2013-06-01 13:15:00,
2013-06-01 09:20:00,80.8,64.6,30.00,WNW,285,0.0,3.0,58,0.00,,,0.00,WeatherCatV1.11B39,2013-06-01 13:20:00,
2013-06-01 09:25:00,81.1,64.4,30.00,WNW,285,0.0,0.0,57,0.00,,,0.00,WeatherCatV1.11B39,2013-06-01 13:25:00,
2013-06-01 09:30:00,81.7,65.0,30.00,WNW,286,0.0,0.0,57,0.00,,,0.00,WeatherCatV1.11B39,2013-06-01 13:30:00,
2013-06-01 09:35:00,82.1,65.8,30.00,WSW,256,0.0,5.0,58,0.00,,,0.00,WeatherCatV1.11B39,2013-06-01 13:35:00,
2013-06-01 09:40:00,82.3,65.5,30.00,West,280,1.0,4.0,57,0.00,,,0.00,WeatherCatV1.11B39,2013-06-01 13:40:00,
2013-06-01 09:45:00,82.7,65.4,30.00,West,268,0.0,0.0,56,0.00,,,0.00,WeatherCatV1.11B39,2013-06-01 13:45:00,
2013-06-01 09:50:00,83.1,65.7,30.00,West,264,0.0,3.0,56,0.00,,,0.00,WeatherCatV1.11B39,2013-06-01 13:50:00,
2013-06-01 09:53:00,83.3,66.4,30.00,West,264,0.0,0.0,57,0.00,,,0.00,WeatherCatV1.11B39,2013-06-01 13:53:00,
2013-06-01 09:58:00,83.7,65.8,30.00,West,263,0.0,1.0,55,0.00,,,0.00,WeatherCatV1.11B39,2013-06-01 13:58:00,
2013-06-01 10:03:00,84.1,64.5,30.00,West,262,3.0,4.0,52,0.00,,,0.00,WeatherCatV1.11B39,2013-06-01 14:03:00,
2013-06-01 10:08:00,84.2,62.9,30.00,West,266,3.0,6.0,49,0.00,,,0.00,WeatherCatV1.11B39,2013-06-01 14:08:00,
2013-06-01 10:13:00,84.2,64.6,29.99,WSW,254,4.0,7.0,52,0.00,,,0.00,WeatherCatV1.11B39,2013-06-01 14:13:00,
2013-06-01 10:18:00,84.4,63.1,30.00,West,266,2.0,6.0,49,0.00,,,0.00,WeatherCatV1.11B39,2013-06-01 14:18:00,
2013-06-01 10:23:00,84.8,62.3,29.99,West,280,0.0,1.0,47,0.00,,,0.00,WeatherCatV1.11B39,2013-06-01 14:23:00,
2013-06-01 10:28:00,85.2,62.7,29.99,WNW,289,0.0,2.0,47,0.00,,,0.00,WeatherCatV1.11B39,2013-06-01 14:28:00,
2013-06-01 10:33:00,85.2,61.4,29.99,WSW,244,5.0,8.0,45,0.00,,,0.00,WeatherCatV1.11B39,2013-06-01 14:33:00,
2013-06-01 10:38:00,85.4,59.7,29.99,WSW,254,9.0,9.0,42,0.00,,,0.00,WeatherCatV1.11B39,2013-06-01 14:38:00,
2013-06-01 10:43:00,85.6,61.2,29.99,West,259,3.0,12.0,44,0.00,,,0.00,WeatherCatV1.11B39,2013-06-01 14:43:00,
2013-06-01 10:48:00,85.6,61.2,29.99,WSW,254,9.0,9.0,44,0.00,,,0.00,WeatherCatV1.11B39,2013-06-01 14:48:00,
2013-06-01 10:53:00,85.6,59.2,29.99,WNW,294,3.0,11.0,41,0.00,,,0.00,WeatherCatV1.11B39,2013-06-01 14:53:00,
2013-06-01 10:58:00,85.7,59.9,30.00,WSW,254,7.0,13.0,42,0.00,,,0.00,WeatherCatV1.11B39,2013-06-01 14:58:00,
2013-06-01 11:03:00,85.6,59.2,29.99,West,263,6.0,12.0,41,0.00,,,0.00,WeatherCatV1.11B39,2013-06-01 15:03:00,
2013-06-01 11:08:00,85.8,60.0,29.99,West,260,6.0,13.0,42,0.00,,,0.00,WeatherCatV1.11B39,2013-06-01 15:08:00,
2013-06-01 11:13:00,85.8,59.3,30.00,NW,315,7.0,9.0,41,0.00,,,0.00,WeatherCatV1.11B39,2013-06-01 15:13:00,
2013-06-01 11:18:00,86.1,59.6,29.99,WSW,247,7.0,11.0,41,0.00,,,0.00,WeatherCatV1.11B39,2013-06-01 15:18:00,
2013-06-01 11:23:00,86.0,60.2,29.99,NW,325,6.0,9.0,42,0.00,,,0.00,WeatherCatV1.11B39,2013-06-01 15:23:00,
2013-06-01 11:28:00,86.2,61.0,29.99,WSW,243,7.0,8.0,43,0.00,,,0.00,WeatherCatV1.11B39,2013-06-01 15:28:00,
2013-06-01 11:33:00,86.1,60.3,29.99,WSW,247,11.0,14.0,42,0.00,,,0.00,WeatherCatV1.11B39,2013-06-01 15:33:00,
2013-06-01 11:38:00,85.8,58.7,29.99,WSW,257,7.0,11.0,40,0.00,,,0.00,WeatherCatV1.11B39,2013-06-01 15:38:00,
2013-06-01 11:43:00,85.8,57.9,29.99,WSW,253,8.0,15.0,39,0.00,,,0.00,WeatherCatV1.11B39,2013-06-01 15:43:00,
2013-06-01 11:48:00,85.6,57.8,29.99,WSW,243,7.0,13.0,39,0.00,,,0.00,WeatherCatV1.11B39,2013-06-01 15:48:00,
2013-06-01 11:53:00,85.6,59.2,29.99,WSW,252,7.0,14.0,41,0.00,,,0.00,WeatherCatV1.11B39,2013-06-01 15:53:00,
2013-06-01 11:58:00,85.6,57.0,29.98,WSW,251,7.0,10.0,38,0.00,,,0.00,WeatherCatV1.11B39,2013-06-01 15:58:00,
2013-06-01 12:03:00,85.8,57.9,29.97,West,260,6.0,6.0,39,0.00,,,0.00,WeatherCatV1.11B39,2013-06-01 16:03:00,
2013-06-01 12:08:00,86.2,59.7,29.98,WSW,255,6.0,7.0,41,0.00,,,0.00,WeatherCatV1.11B39,2013-06-01 16:08:00,
2013-06-01 12:13:00,86.4,58.5,29.98,SW,217,1.0,5.0,39,0.00,,,0.00,WeatherCatV1.11B39,2013-06-01 16:13:00,
2013-06-01 12:18:00,86.6,61.4,29.98,SW,235,3.0,11.0,43,0.00,,,0.00,WeatherCatV1.11B39,2013-06-01 16:18:00,
2013-06-01 12:23:00,86.5,62.0,29.98,WSW,243,2.0,9.0,44,0.00,,,0.00,WeatherCatV1.11B39,2013-06-01 16:23:00,
2013-06-01 12:28:00,86.2,60.4,29.98,WSW,242,9.0,9.0,42,0.00,,,0.00,WeatherCatV1.11B39,2013-06-01 16:28:00,
2013-06-01 12:34:00,86.2,60.4,29.97,West,261,4.0,9.0,42,0.00,,,0.00,WeatherCatV1.11B39,2013-06-01 16:34:00,
2013-06-01 12:39:00,86.7,61.5,29.97,WSW,246,6.0,10.0,43,0.00,,,0.00,WeatherCatV1.11B39,2013-06-01 16:39:00,
2013-06-01 12:44:00,86.9,58.9,29.97,WSW,249,3.0,9.0,39,0.00,,,0.00,WeatherCatV1.11B39,2013-06-01 16:44:00,
2013-06-01 12:49:00,87.1,58.4,29.97,WSW,251,14.0,14.0,38,0.00,,,0.00,WeatherCatV1.11B39,2013-06-01 16:49:00,
2013-06-01 12:54:00,86.9,58.2,29.96,WSW,254,10.0,10.0,38,0.00,,,0.00,WeatherCatV1.11B39,2013-06-01 16:54:00,
2013-06-01 12:59:00,86.9,58.9,29.96,WSW,252,3.0,10.0,39,0.00,,,0.00,WeatherCatV1.11B39,2013-06-01 16:59:00,
2013-06-01 13:04:00,87.1,58.4,29.96,WSW,258,6.0,7.0,38,0.00,,,0.00,WeatherCatV1.11B39,2013-06-01 17:04:00,
2013-06-01 13:09:00,87.3,57.0,29.96,WSW,247,6.0,11.0,36,0.00,,,0.00,WeatherCatV1.11B39,2013-06-01 17:09:00,
2013-06-01 13:14:00,87.3,58.5,29.96,WSW,253,6.0,7.0,38,0.00,,,0.00,WeatherCatV1.11B39,2013-06-01 17:14:00,
2013-06-01 13:19:00,87.3,60.0,29.96,WSW,250,5.0,8.0,40,0.00,,,0.00,WeatherCatV1.11B39,2013-06-01 17:19:00,
2013-06-01 13:24:00,87.5,57.2,29.95,West,278,3.0,11.0,36,0.00,,,0.00,WeatherCatV1.11B39,2013-06-01 17:24:00,
2013-06-01 13:29:00,87.6,58.8,29.95,WSW,246,2.0,9.0,38,0.00,,,0.00,WeatherCatV1.11B39,2013-06-01 17:29:00,
2013-06-01 13:34:00,87.7,60.3,29.95,West,261,4.0,9.0,40,0.00,,,0.00,WeatherCatV1.11B39,2013-06-01 17:34:00,
2013-06-01 13:39:00,87.5,58.0,29.95,WSW,244,8.0,10.0,37,0.00,,,0.00,WeatherCatV1.11B39,2013-06-01 17:39:00,
2013-06-01 13:44:00,87.7,58.9,29.95,WSW,238,5.0,7.0,38,0.00,,,0.00,WeatherCatV1.11B39,2013-06-01 17:44:00,
2013-06-01 13:49:00,87.7,55.8,29.95,West,266,4.0,7.0,34,0.00,,,0.00,WeatherCatV1.11B39,2013-06-01 17:49:00,
2013-06-01 13:54:00,87.9,59.1,29.94,WSW,255,3.0,9.0,38,0.00,,,0.00,WeatherCatV1.11B39,2013-06-01 17:54:00,
2013-06-01 13:59:00,88.1,59.3,29.95,West,259,4.0,7.0,38,0.00,,,0.00,WeatherCatV1.11B39,2013-06-01 17:59:00,
2013-06-01 14:04:00,88.3,61.6,29.95,WSW,257,5.0,8.0,41,0.00,,,0.00,WeatherCatV1.11B39,2013-06-01 18:04:00,
2013-06-01 14:09:00,88.3,60.2,29.95,WSW,241,5.0,12.0,39,0.00,,,0.00,WeatherCatV1.11B39,2013-06-01 18:09:00,
2013-06-01 14:14:00,88.1,57.7,29.95,WSW,253,1.0,8.0,36,0.00,,,0.00,WeatherCatV1.11B39,2013-06-01 18:14:00,
2013-06-01 14:19:00,88.1,60.0,29.94,WNW,296,2.0,7.0,39,0.00,,,0.00,WeatherCatV1.11B39,2013-06-01 18:19:00,
2013-06-01 14:24:00,88.1,57.0,29.95,WSW,253,14.0,14.0,35,0.00,,,0.00,WeatherCatV1.11B39,2013-06-01 18:24:00,
2013-06-01 14:29:00,87.9,59.1,29.94,West,261,5.0,9.0,38,0.00,,,0.00,WeatherCatV1.11B39,2013-06-01 18:29:00,
2013-06-01 14:34:00,88.3,57.1,29.94,WSW,258,7.0,11.0,35,0.00,,,0.00,WeatherCatV1.11B39,2013-06-01 18:34:00,
2013-06-01 14:39:00,88.3,59.4,29.94,WSW,252,8.0,10.0,38,0.00,,,0.00,WeatherCatV1.11B39,2013-06-01 18:39:00,
2013-06-01 14:44:00,88.3,58.7,29.94,WSW,250,3.0,8.0,37,0.00,,,0.00,WeatherCatV1.11B39,2013-06-01 18:44:00,
2013-06-01 14:49:00,88.3,59.4,29.94,WNW,291,5.0,10.0,38,0.00,,,0.00,WeatherCatV1.11B39,2013-06-01 18:49:00,
2013-06-01 14:54:00,88.3,60.2,29.94,WSW,249,4.0,6.0,39,0.00,,,0.00,WeatherCatV1.11B39,2013-06-01 18:54:00,
2013-06-01 14:59:00,88.3,60.9,29.94,WSW,238,5.0,9.0,40,0.00,,,0.00,WeatherCatV1.11B39,2013-06-01 18:59:00,
2013-06-01 15:04:00,88.5,60.3,29.93,WSW,250,4.0,8.0,39,0.00,,,0.00,WeatherCatV1.11B39,2013-06-01 19:04:00,
2013-06-01 15:09:00,88.3,62.9,29.94,WSW,237,6.0,12.0,43,0.00,,,0.00,WeatherCatV1.11B39,2013-06-01 19:09:00,
2013-06-01 15:14:00,88.5,62.4,29.93,WSW,253,3.0,5.0,42,0.00,,,0.00,WeatherCatV1.11B39,2013-06-01 19:14:00,
2013-06-01 15:19:00,88.5,62.4,29.93,WSW,254,4.0,10.0,42,0.00,,,0.00,WeatherCatV1.11B39,2013-06-01 19:19:00,
2013-06-01 15:24:00,88.3,64.9,29.93,SW,231,5.0,7.0,46,0.00,,,0.00,WeatherCatV1.11B39,2013-06-01 19:24:00,
2013-06-01 15:29:00,88.3,60.9,29.93,WSW,241,5.0,13.0,40,0.00,,,0.00,WeatherCatV1.11B39,2013-06-01 19:29:00,
2013-06-01 15:34:00,88.5,63.8,29.93,WNW,288,0.0,5.0,44,0.00,,,0.00,WeatherCatV1.11B39,2013-06-01 19:34:00,
2013-06-01 15:39:00,88.5,63.8,29.93,NW,313,2.0,11.0,44,0.00,,,0.00,WeatherCatV1.11B39,2013-06-01 19:39:00,
2013-06-01 15:44:00,88.5,63.8,29.93,WSW,251,0.0,0.0,44,0.00,,,0.00,WeatherCatV1.11B39,2013-06-01 19:44:00,
2013-06-01 15:49:00,88.5,63.8,29.93,WNW,293,5.0,8.0,44,0.00,,,0.00,WeatherCatV1.11B39,2013-06-01 19:49:00,
2013-06-01 15:54:00,88.3,63.6,29.93,WSW,253,6.0,8.0,44,0.00,,,0.00,WeatherCatV1.11B39,2013-06-01 19:54:00,
2013-06-01 15:59:00,88.3,64.2,29.93,WNW,287,3.0,7.0,45,0.00,,,0.00,WeatherCatV1.11B39,2013-06-01 19:59:00,
2013-06-01 16:04:00,88.1,63.4,29.93,West,261,5.0,7.0,44,0.00,,,0.00,WeatherCatV1.11B39,2013-06-01 20:04:00,
2013-06-01 16:09:00,88.1,65.3,29.92,SW,232,0.0,5.0,47,0.00,,,0.00,WeatherCatV1.11B39,2013-06-01 20:09:00,
2013-06-01 16:14:00,88.3,65.5,29.92,WSW,258,4.0,7.0,47,0.00,,,0.00,WeatherCatV1.11B39,2013-06-01 20:14:00,
2013-06-01 16:19:00,88.3,63.6,29.92,WSW,243,3.0,5.0,44,0.00,,,0.00,WeatherCatV1.11B39,2013-06-01 20:19:00,
2013-06-01 16:24:00,88.3,63.6,29.92,WSW,246,5.0,7.0,44,0.00,,,0.00,WeatherCatV1.11B39,2013-06-01 20:24:00,
2013-06-01 16:29:00,88.3,64.9,29.92,WSW,248,3.0,4.0,46,0.00,,,0.00,WeatherCatV1.11B39,2013-06-01 20:29:00,
2013-06-01 16:34:00,88.3,64.9,29.92,WNW,293,3.0,7.0,46,0.00,,,0.00,WeatherCatV1.11B39,2013-06-01 20:34:00,
2013-06-01 16:39:00,88.5,63.8,29.92,WSW,249,3.0,9.0,44,0.00,,,0.00,WeatherCatV1.11B39,2013-06-01 20:39:00,
2013-06-01 16:44:00,88.5,63.8,29.92,WSW,249,5.0,8.0,44,0.00,,,0.00,WeatherCatV1.11B39,2013-06-01 20:44:00,
2013-06-01 16:49:00,88.3,64.9,29.92,SW,230,0.0,5.0,46,0.00,,,0.00,WeatherCatV1.11B39,2013-06-01 20:49:00,
2013-06-01 16:54:00,88.1,64.0,29.92,WSW,239,3.0,3.0,45,0.00,,,0.00,WeatherCatV1.11B39,2013-06-01 20:54:00,
2013-06-01 16:59:00,88.1,62.1,29.92,WSW,251,5.0,9.0,42,0.00,,,0.00,WeatherCatV1.11B39,2013-06-01 20:59:00,
2013-06-01 17:04:00,88.1,62.1,29.92,SW,234,4.0,5.0,42,0.00,,,0.00,WeatherCatV1.11B39,2013-06-01 21:04:00,
2013-06-01 17:09:00,87.9,64.5,29.92,WSW,245,4.0,8.0,46,0.00,,,0.00,WeatherCatV1.11B39,2013-06-01 21:09:00,
2013-06-01 17:14:00,88.1,64.7,29.92,WSW,256,7.0,8.0,46,0.00,,,0.00,WeatherCatV1.11B39,2013-06-01 21:14:00,
2013-06-01 17:19:00,88.1,63.4,29.92,WSW,242,4.0,13.0,44,0.00,,,0.00,WeatherCatV1.11B39,2013-06-01 21:19:00,
2013-06-01 17:24:00,88.1,65.9,29.92,WSW,251,8.0,10.0,48,0.00,,,0.00,WeatherCatV1.11B39,2013-06-01 21:24:00,
2013-06-01 17:29:00,87.9,65.7,29.92,WSW,244,7.0,10.0,48,0.00,,,0.00,WeatherCatV1.11B39,2013-06-01 21:29:00,
2013-06-01 17:34:00,87.7,65.5,29.92,West,261,6.0,10.0,48,0.00,,,0.00,WeatherCatV1.11B39,2013-06-01 21:34:00,
2013-06-01 17:39:00,87.7,65.5,29.92,WSW,253,7.0,11.0,48,0.00,,,0.00,WeatherCatV1.11B39,2013-06-01 21:39:00,
2013-06-01 17:44:00,87.7,66.1,29.92,WSW,242,5.0,8.0,49,0.00,,,0.00,WeatherCatV1.11B39,2013-06-01 21:44:00,
2013-06-01 17:49:00,87.5,65.9,29.92,WSW,239,5.0,13.0,49,0.00,,,0.00,WeatherCatV1.11B39,2013-06-01 21:49:00,
2013-06-01 17:54:00,87.3,65.2,29.92,WSW,255,7.0,10.0,48,0.00,,,0.00,WeatherCatV1.11B39,2013-06-01 21:54:00,
2013-06-01 17:59:00,87.1,66.2,29.92,WSW,256,5.0,7.0,50,0.00,,,0.00,WeatherCatV1.11B39,2013-06-01 21:59:00,
2013-06-01 18:04:00,86.9,66.6,29.91,WSW,245,5.0,10.0,51,0.00,,,0.00,WeatherCatV1.11B39,2013-06-01 22:04:00,
2013-06-01 18:09:00,86.9,66.6,29.91,WSW,238,6.0,7.0,51,0.00,,,0.00,WeatherCatV1.11B39,2013-06-01 22:09:00,
2013-06-01 18:14:00,86.8,65.9,29.91,WSW,240,6.0,9.0,50,0.00,,,0.00,WeatherCatV1.11B39,2013-06-01 22:14:00,
2013-06-01 18:19:00,86.6,65.7,29.91,WSW,255,7.0,14.0,50,0.00,,,0.00,WeatherCatV1.11B39,2013-06-01 22:19:00,
2013-06-01 18:24:00,86.7,66.4,29.91,WSW,245,4.0,11.0,51,0.00,,,0.00,WeatherCatV1.11B39,2013-06-01 22:24:00,
2013-06-01 18:29:00,86.5,66.2,29.91,WSW,258,3.0,11.0,51,0.00,,,0.00,WeatherCatV1.11B39,2013-06-01 22:29:00,
2013-06-01 18:34:00,86.2,66.5,29.91,WSW,258,4.0,5.0,52,0.00,,,0.00,WeatherCatV1.11B39,2013-06-01 22:34:00,
2013-06-01 18:39:00,86.1,66.9,29.92,WSW,247,7.0,12.0,53,0.00,,,0.00,WeatherCatV1.11B39,2013-06-01 22:39:00,
2013-06-01 18:44:00,85.8,66.1,29.92,WSW,248,3.0,6.0,52,0.00,,,0.00,WeatherCatV1.11B39,2013-06-01 22:44:00,
2013-06-01 18:49:00,85.8,66.1,29.92,WSW,246,2.0,4.0,52,0.00,,,0.00,WeatherCatV1.11B39,2013-06-01 22:49:00,
2013-06-01 18:54:00,85.6,67.0,29.92,WSW,242,0.0,5.0,54,0.00,,,0.00,WeatherCatV1.11B39,2013-06-01 22:54:00,
2013-06-01 18:59:00,85.4,66.3,29.92,WSW,257,5.0,6.0,53,0.00,,,0.00,WeatherCatV1.11B39,2013-06-01 22:59:00,
2013-06-01 19:04:00,85.4,66.8,29.92,WSW,248,2.0,7.0,54,0.00,,,0.00,WeatherCatV1.11B39,2013-06-01 23:04:00,
2013-06-01 19:09:00,85.2,67.2,29.92,West,260,3.0,6.0,55,0.00,,,0.00,WeatherCatV1.11B39,2013-06-01 23:09:00,
2013-06-01 19:14:00,85.2,67.2,29.92,WSW,242,4.0,7.0,55,0.00,,,0.00,WeatherCatV1.11B39,2013-06-01 23:14:00,
2013-06-01 19:19:00,85.0,67.0,29.93,WSW,254,6.0,7.0,55,0.00,,,0.00,WeatherCatV1.11B39,2013-06-01 23:19:00,
2013-06-01 19:24:00,85.0,67.0,29.93,WSW,245,2.0,4.0,55,0.00,,,0.00,WeatherCatV1.11B39,2013-06-01 23:24:00,
2013-06-01 19:29:00,84.8,67.3,29.92,WSW,244,0.0,1.0,56,0.00,,,0.00,WeatherCatV1.11B39,2013-06-01 23:29:00,
2013-06-01 19:34:00,84.6,67.7,29.92,West,264,0.0,4.0,57,0.00,,,0.00,WeatherCatV1.11B39,2013-06-01 23:34:00,
2013-06-01 19:36:00,84.4,67.5,29.92,SW,222,2.0,5.0,57,0.00,,,0.00,WeatherCatV1.11B39,2013-06-01 23:36:00,
2013-06-01 19:41:00,84.2,67.3,29.92,WSW,243,2.0,4.0,57,0.00,,,0.00,WeatherCatV1.11B39,2013-06-01 23:41:00,
2013-06-01 19:46:00,83.9,68.0,29.93,SW,234,4.0,5.0,59,0.00,,,0.00,WeatherCatV1.11B39,2013-06-01 23:46:00,
2013-06-01 19:51:00,83.7,67.8,29.93,WSW,237,4.0,6.0,59,0.00,,,0.00,WeatherCatV1.11B39,2013-06-01 23:51:00,
2013-06-01 19:56:00,83.3,68.4,29.93,WSW,252,2.0,8.0,61,0.00,,,0.00,WeatherCatV1.11B39,2013-06-01 23:56:00,
2013-06-01 20:01:00,83.1,68.2,29.93,WSW,251,2.0,11.0,61,0.00,,,0.00,WeatherCatV1.11B39,2013-06-02 00:01:00,
2013-06-01 20:06:00,82.9,68.0,29.93,WSW,242,3.0,6.0,61,0.00,,,0.00,WeatherCatV1.11B39,2013-06-02 00:06:00,
2013-06-01 20:11:00,82.7,67.9,29.92,WSW,241,0.0,5.0,61,0.00,,,0.00,WeatherCatV1.11B39,2013-06-02 00:11:00,
2013-06-01 20:16:00,82.3,67.9,29.92,WSW,251,12.0,12.0,62,0.00,,,0.00,WeatherCatV1.11B39,2013-06-02 00:16:00,
2013-06-01 20:21:00,82.1,68.2,29.92,WSW,245,5.0,9.0,63,0.00,,,0.00,WeatherCatV1.11B39,2013-06-02 00:21:00,
2013-06-01 20:26:00,81.9,67.6,29.92,SW,235,2.0,7.0,62,0.00,,,0.00,WeatherCatV1.11B39,2013-06-02 00:26:00,
2013-06-01 20:31:00,81.7,67.4,29.92,SW,230,0.0,2.0,62,0.00,,,0.00,WeatherCatV1.11B39,2013-06-02 00:31:00,
2013-06-01 20:36:00,81.5,67.7,29.92,West,268,5.0,12.0,63,0.00,,,0.00,WeatherCatV1.11B39,2013-06-02 00:36:00,
2013-06-01 20:41:00,81.4,67.6,29.93,WSW,250,2.0,9.0,63,0.00,,,0.00,WeatherCatV1.11B39,2013-06-02 00:41:00,
2013-06-01 20:46:00,81.2,67.4,29.93,WSW,245,2.0,9.0,63,0.00,,,0.00,WeatherCatV1.11B39,2013-06-02 00:46:00,
2013-06-01 20:51:00,81.0,67.2,29.93,WSW,251,3.0,6.0,63,0.00,,,0.00,WeatherCatV1.11B39,2013-06-02 00:51:00,
2013-06-01 20:56:00,80.8,67.5,29.92,WSW,252,0.0,4.0,64,0.00,,,0.00,WeatherCatV1.11B39,2013-06-02 00:56:00,
2013-06-01 21:01:00,80.6,67.3,29.93,WSW,249,6.0,7.0,64,0.00,,,0.00,WeatherCatV1.11B39,2013-06-02 01:01:00,
2013-06-01 21:06:00,80.4,67.5,29.93,WSW,240,4.0,5.0,65,0.00,,,0.00,WeatherCatV1.11B39,2013-06-02 01:06:00,
2013-06-01 21:11:00,80.4,67.5,29.93,WSW,238,6.0,11.0,65,0.00,,,0.00,WeatherCatV1.11B39,2013-06-02 01:11:00,
2013-06-01 21:16:00,80.2,67.3,29.93,WSW,246,2.0,7.0,65,0.00,,,0.00,WeatherCatV1.11B39,2013-06-02 01:16:00,
2013-06-01 21:21:00,80.0,67.6,29.93,SSE,164,0.0,0.0,66,0.00,,,0.00,WeatherCatV1.11B39,2013-06-02 01:21:00,
2013-06-01 21:26:00,79.7,67.3,29.93,WSW,243,0.0,0.0,66,0.00,,,0.00,WeatherCatV1.11B39,2013-06-02 01:26:00,
2013-06-01 21:31:00,79.3,66.9,29.93,WSW,239,0.0,0.0,66,0.00,,,0.00,WeatherCatV1.11B39,2013-06-02 01:31:00,
2013-06-01 21:36:00,79.3,66.9,29.93,WSW,251,0.0,6.0,66,0.00,,,0.00,WeatherCatV1.11B39,2013-06-02 01:36:00,
2013-06-01 21:41:00,79.1,66.7,29.93,WSW,251,4.0,7.0,66,0.00,,,0.00,WeatherCatV1.11B39,2013-06-02 01:41:00,
2013-06-01 21:46:00,78.9,66.6,29.93,WSW,254,3.0,4.0,66,0.00,,,0.00,WeatherCatV1.11B39,2013-06-02 01:46:00,
2013-06-01 21:51:00,78.9,66.6,29.93,WSW,247,0.0,0.0,66,0.00,,,0.00,WeatherCatV1.11B39,2013-06-02 01:51:00,
2013-06-01 21:57:00,78.7,66.8,29.94,SSW,196,0.0,4.0,67,0.00,,,0.00,WeatherCatV1.11B39,2013-06-02 01:57:00,
2013-06-01 22:02:00,78.4,66.5,29.93,West,261,0.0,0.0,67,0.00,,,0.00,WeatherCatV1.11B39,2013-06-02 02:02:00,
2013-06-01 22:07:00,78.2,66.3,29.93,SW,214,0.0,0.0,67,0.00,,,0.00,WeatherCatV1.11B39,2013-06-02 02:07:00,
2013-06-01 22:12:00,78.0,66.1,29.93,SW,215,0.0,0.0,67,0.00,,,0.00,WeatherCatV1.11B39,2013-06-02 02:12:00,
2013-06-01 22:17:00,78.0,66.1,29.93,SW,215,0.0,0.0,67,0.00,,,0.00,WeatherCatV1.11B39,2013-06-02 02:17:00,
2013-06-01 22:22:00,77.8,65.9,29.94,WSW,246,5.0,6.0,67,0.00,,,0.00,WeatherCatV1.11B39,2013-06-02 02:22:00,
2013-06-01 22:27:00,77.7,66.3,29.94,WSW,247,0.0,0.0,68,0.00,,,0.00,WeatherCatV1.11B39,2013-06-02 02:27:00,
2013-06-01 22:32:00,77.5,66.1,29.94,WSW,246,3.0,8.0,68,0.00,,,0.00,WeatherCatV1.11B39,2013-06-02 02:32:00,
2013-06-01 22:37:00,77.5,66.5,29.94,WSW,244,3.0,5.0,69,0.00,,,0.00,WeatherCatV1.11B39,2013-06-02 02:37:00,
2013-06-01 22:42:00,77.3,66.3,29.94,WSW,250,1.0,6.0,69,0.00,,,0.00,WeatherCatV1.11B39,2013-06-02 02:42:00,
2013-06-01 22:47:00,77.2,66.2,29.93,WSW,245,3.0,6.0,69,0.00,,,0.00,WeatherCatV1.11B39,2013-06-02 02:47:00,
2013-06-01 22:52:00,77.1,66.1,29.94,WSW,247,3.0,5.0,69,0.00,,,0.00,WeatherCatV1.11B39,2013-06-02 02:52:00,
2013-06-01 22:57:00,76.9,65.9,29.93,SSW,202,0.0,1.0,69,0.00,,,0.00,WeatherCatV1.11B39,2013-06-02 02:57:00,
2013-06-01 23:02:00,76.8,65.8,29.93,WSW,242,0.0,0.0,69,0.00,,,0.00,WeatherCatV1.11B39,2013-06-02 03:02:00,
2013-06-01 23:07:00,76.6,65.6,29.94,SSW,207,0.0,1.0,69,0.00,,,0.00,WeatherCatV1.11B39,2013-06-02 03:07:00,
2013-06-01 23:12:00,76.4,65.9,29.93,WSW,238,0.0,0.0,70,0.00,,,0.00,WeatherCatV1.11B39,2013-06-02 03:12:00,
2013-06-01 23:17:00,76.2,65.7,29.93,WSW,238,0.0,0.0,70,0.00,,,0.00,WeatherCatV1.11B39,2013-06-02 03:17:00,
2013-06-01 23:22:00,76.2,66.1,29.92,WSW,243,0.0,0.0,71,0.00,,,0.00,WeatherCatV1.11B39,2013-06-02 03:22:00,
2013-06-01 23:27:00,76.1,66.0,29.93,WSW,239,0.0,0.0,71,0.00,,,0.00,WeatherCatV1.11B39,2013-06-02 03:27:00,
2013-06-01 23:32:00,75.9,65.8,29.92,SW,215,0.0,0.0,71,0.00,,,0.00,WeatherCatV1.11B39,2013-06-02 03:32:00,
2013-06-01 23:37:00,75.7,65.6,29.93,WSW,240,0.0,1.0,71,0.00,,,0.00,WeatherCatV1.11B39,2013-06-02 03:37:00,
2013-06-01 23:42:00,75.7,65.6,29.93,WSW,240,0.0,0.0,71,0.00,,,0.00,WeatherCatV1.11B39,2013-06-02 03:42:00,
2013-06-01 23:47:00,75.6,66.3,29.93,WSW,240,0.0,0.0,73,0.00,,,0.00,WeatherCatV1.11B39,2013-06-02 03:47:00,
2013-06-01 23:52:00,75.4,65.7,29.92,SW,221,0.0,0.0,72,0.00,,,0.00,WeatherCatV1.11B39,2013-06-02 03:52:00,
2013-06-01 23:57:00,75.2,65.9,29.92,WSW,240,0.0,5.0,73,0.00,,,0.00,WeatherCatV1.11B39,2013-06-02 03:57:00,